Regional Weather Roundup
Issued by NWS New Orleans/Baton Rouge, LA

Home | Current Version | Previous Version | Text Only | Print | Product List | Glossary On
Versions: 1 2 3 4 5 6 7 8 9 10 11 12 13 14 15 16 17 18 19 20 21 22 23 24 25 26 27 28 29
000
ASUS44 KLIX 301511
RWRLIX
NEW ORLEANS REGIONAL WEATHER ROUNDUP
NATIONAL WEATHER SERVICE NEW ORLEANS LA
1000 AM CDT SAT JUL 30 2016

NOTE: "FAIR" INDICATES FEW OR NO CLOUDS BELOW 12,000 FEET WITH NO
      SIGNIFICANT WEATHER AND/OR OBSTRUCTIONS TO VISIBILITY.
      SKY/WX - SKY CONDITION AND SIGNIFICANT WEATHER.
      TMP - AIR TEMPERATURE.     DP    - DEWPOINT TEMPERATURE.
      RH  - RELATIVE HUMIDITY.   PRES  - PRESSURE.
      HI  - HEAT INDEX.          WCI   - WIND CHILL INDEX.

*  THESE STATIONS ARE NOT NWS OR FAA STATIONS AND ARE NOT UNDER
   NWS QUALITY CONTROL.

LAZ038-040-048-061>063-065>067-069-301600-
SOUTHEAST LOUISIANA

CITY           SKY/WX    TMP DP  RH WIND       PRES   REMARKS
N.O. AUDUBON     N/A     93  79  64 MISG        N/A  HX 110
N.O. INTL ARPT MOSUNNY   89  77  67 NW7       30.05S HX 101
N.O. LAKEFRONT SUNNY     88  75  65 NW8       30.06R HX  97
N.O. DOWNTOWN*   N/A     87  75  67 VRB5      30.07R HX  96
RESERVE*         N/A     89  77  67 W6        30.06S HX 102
SLIDELL        MOSUNNY   88  76  67 NW6       30.05S HX  99
BATON ROUGE    MOSUNNY   85  74  69 NW5       30.06R
BOOTHVILLE     MOSUNNY   87  77  72 W8        30.06S HX  99
BELLE CHASSE   MOSUNNY   88  77  69 W5        30.05S HX 100
BOGALUSA*      PTSUNNY   87  74  66 NW8       30.08S HX  95
GALLIANO*      MOSUNNY   88  77  71 W3        30.05S HX 100
NEW ROADS*       N/A     85  76  74 NW3       30.06S HX  95
GONZALES*      PTSUNNY   85  76  74 W3        30.05R HX  95
HAMMOND*       PTSUNNY   88  73  62 NW8       30.06S HX  96
HOUMA*         SUNNY     86  77  74 CALM      30.05S HX  97
PORT FOURCHON* NOT AVBL

$$

MSZ070-080>082-301600-
SOUTHERN MISSISSIPPI

CITY           SKY/WX    TMP DP  RH WIND       PRES   REMARKS
MCCOMB         MOSUNNY   84  75  74 NW9       30.07S
GULFPORT       MOSUNNY   87  76  69 NW8       30.05R HX  97
BILOXI         MOSUNNY   88  77  70 NW9       30.05S HX 101
PASCAGOULA     MOSUNNY   88  78  72 N7        30.05S HX 101
STENNIS ARPT*  PTSUNNY   86  73  66 VRB5      30.06R

$$

COASTAL OBSERVATIONS
LAKE AND NEARSHORE STATIONS

STATION/POSITION TIME  TEMP    WIND        PRES    WAVE
                       AIR SEA DIR/SP/G            HT/PER
                 (UTC) (F)     (DEG/KT/KT) (MB)    (FT/S)
PASCAGOULA       1400   86     290/  8/ 10 1017.1
WAVELAND YACHT   1400   83 87  300/  5/  8 1017.7
GRAND ISLE       1400   83 88  260/  6/ 11 1018.1
SOUTHWEST PASS   1400          350/  6/  7   N/A
NEW CANAL        1400   85 86  250/  5/  7 1016.8
SHELL BEACH      1400   84 88  270/  5/  7 1017.8

OFFSHORE STATIONS

STATION/POSITION TIME  TEMP    WIND        PRES    WAVE
                       AIR SEA DIR/SP/G            HT/PER
                 (UTC) (F)     (DEG/KT/KT) (MB)    (FT/S)
64 S DAUPHIN ISL 1400   86 88  290/  8/  8 1017.5

$$





USA.gov is the U.S. government's official web portal to all federal, state and local government web resources and services.